Weather History for Paducah, KY

Change the Weather History Date:

Tuesday, March 26, 2013

  Actual Average Record
Temperature  
Mean Temperature 35 °F 52 °F  
Max Temperature 44 °F 63 °F 83 °F (1991)
Min Temperature 25 °F 40 °F 12 °F (1955)
Degree Days  
Heating Degree Days 30 14  
Month to date heating degree days 627 458  
Since 1 July heating degree days 3738 3754  
Cooling Degree Days 0 0  
Month to date cooling degree days 0 0  
Year to date cooling degree days 0 0  
Moisture  
Dew Point 26 °F    
Average Humidity 65    
Maximum Humidity 85    
Minimum Humidity 45    
Precipitation  
Precipitation T in 0.14 in 2.00 in (1945)
Month to date precipitation 2.57 3.22  
Year to date precipitation 14.32 10.81  
Snow  
Snow 0.10 in 0.00 in T in (2013)
Month to date snowfall 0.7 0.6  
Since 1 July snowfall 6.8 9.1  
Snow Depth 0.00 in    
Sea Level Pressure  
Sea Level Pressure 30.26 in    
Wind  
Wind Speed 6 mph (WNW)    
Max Wind Speed 13 mph    
Max Gust Speed 17 mph    
Visibility 8 miles    
Events Snow    
T = Trace of Precipitation, MM = Missing Value Source: NWS Daily Summary

Daily Weather History Graph

Daily Weather History Graph

Search for Another Location

Airport:

Trip Planner

Search our weather history database for the weather conditions in past years. The results will help you decide how hot, cold, wet, or windy it might be!

Date:

Astronomy

Mar. 26, 2013 Rise Set
Actual Time 6:49 AM CDT 7:12 PM CDT
Civil Twilight 6:23 AM CDT 7:38 PM CDT
Nautical Twilight 5:52 AM CDT 8:09 PM CDT
Astronomical Twilight 5:21 AM CDT 8:40 PM CDT
Moon 6:48 PM CDT (3/26) 6:05 AM CDT (3/26)
Length of Visible Light 13h 15m
Length of Day
12h 23m
Waxing Gibbous, 99% of the Moon is Illuminated
Mar 26
Waxing Gibbous
Mar 27
Full
Apr 2
Last Quarter
Apr 10
New
Apr 18
First Quarter

Hourly Weather History & Observations

Time (CDT) Temp. Windchill Dew Point Humidity Pressure Visibility Wind Dir Wind Speed Gust Speed Precip Events Conditions
12:23 AM 32.0 °F 25.6 °F 28.4 °F 87% 30.18 in 2.0 mi WNW 6.9 mph - 0.00 in Snow Light Snow
12:34 AM 32.0 °F 26.4 °F 28.4 °F 87% 30.18 in 2.5 mi WNW 5.8 mph - 0.00 in Snow Light Snow
12:53 AM 32.0 °F 25.6 °F 28.9 °F 88% 30.19 in 2.5 mi WNW 6.9 mph - 0.00 in Snow Light Snow
1:02 AM 32.0 °F 27.5 °F 28.4 °F 87% 30.18 in 3.0 mi West 4.6 mph - 0.00 in Snow Light Snow
1:18 AM 32.0 °F 24.8 °F 28.4 °F 87% 30.18 in 2.5 mi WNW 8.1 mph - 0.00 in Snow Light Snow
1:29 AM 32.0 °F 26.4 °F 28.4 °F 87% 30.18 in 3.0 mi WNW 5.8 mph - 0.00 in Snow Light Snow
1:45 AM 30.2 °F 23.4 °F 28.4 °F 93% 30.18 in 7.0 mi West 6.9 mph - 0.00 in   Overcast
1:53 AM 30.9 °F 23.5 °F 28.9 °F 92% 30.19 in 8.0 mi WNW 8.1 mph - 0.00 in   Overcast
2:53 AM 32.0 °F 26.4 °F 28.0 °F 85% 30.19 in 10.0 mi WNW 5.8 mph - N/A   Overcast
3:44 AM 30.2 °F 23.4 °F 26.6 °F 86% 30.18 in 10.0 mi WNW 6.9 mph - N/A   Overcast
3:53 AM 30.9 °F 26.2 °F 27.0 °F 85% 30.19 in 8.0 mi WNW 4.6 mph - N/A   Overcast
4:53 AM 30.9 °F 25.2 °F 27.0 °F 85% 30.20 in 10.0 mi West 5.8 mph - 0.00 in   Overcast
5:53 AM 30.9 °F 25.2 °F 26.1 °F 82% 30.21 in 10.0 mi WNW 5.8 mph - N/A   Scattered Clouds
6:53 AM 30.0 °F 24.1 °F 26.1 °F 85% 30.24 in 10.0 mi WNW 5.8 mph - N/A   Scattered Clouds
7:53 AM 30.9 °F 25.2 °F 26.1 °F 82% 30.26 in 10.0 mi WNW 5.8 mph - N/A   Overcast
8:53 AM 32.0 °F 25.6 °F 27.0 °F 82% 30.29 in 10.0 mi WNW 6.9 mph - N/A   Overcast
9:53 AM 34.0 °F 27.2 °F 27.0 °F 75% 30.31 in 10.0 mi NW 8.1 mph - N/A   Overcast
10:53 AM 37.9 °F 31.5 °F 30.0 °F 73% 30.32 in 10.0 mi NNW 9.2 mph - N/A   Overcast
11:53 AM 39.0 °F 32.3 °F 28.0 °F 65% 30.32 in 10.0 mi NNW 10.4 mph - N/A   Overcast
12:53 PM 39.0 °F 32.8 °F 26.1 °F 60% 30.32 in 10.0 mi WNW 9.2 mph - N/A   Overcast
1:53 PM 42.1 °F 37.7 °F 25.0 °F 51% 30.31 in 10.0 mi NW 6.9 mph - N/A   Overcast
2:53 PM 42.1 °F 35.7 °F 25.0 °F 51% 30.31 in 10.0 mi WNW 11.5 mph - N/A   Overcast
3:53 PM 42.1 °F 37.7 °F 25.0 °F 51% 30.30 in 10.0 mi WNW 6.9 mph - N/A   Overcast
4:53 PM 43.0 °F 37.7 °F 24.1 °F 47% 30.30 in 10.0 mi West 9.2 mph - N/A   Overcast
5:53 PM 42.1 °F 37.1 °F 23.0 °F 47% 30.31 in 10.0 mi NW 8.1 mph - N/A   Overcast
6:53 PM 42.1 °F 40.2 °F 23.0 °F 47% 30.32 in 10.0 mi WNW 3.5 mph - N/A   Overcast
7:53 PM 39.0 °F - 23.0 °F 53% 30.33 in 10.0 mi Calm Calm - N/A   Clear
8:53 PM 35.1 °F 31.0 °F 24.1 °F 64% 30.35 in 10.0 mi NNE 4.6 mph - N/A   Clear
9:53 PM 30.9 °F - 25.0 °F 79% 30.36 in 10.0 mi Calm Calm - N/A   Clear
10:53 PM 28.9 °F - 24.1 °F 82% 30.36 in 10.0 mi Calm Calm - N/A   Clear
11:53 PM 28.0 °F - 24.1 °F 85% 30.37 in 10.0 mi Calm Calm - N/A   Clear